Regional Weather Roundup
Issued by NWS

Home | Current Version | Previous Version | Text Only | Print | Product List | Glossary Off
Versions: 1 2 3 4 5 6 7 8 9 10 11 12 13 14 15 16 17 18 19 20 21 22 23 24 25 26 27 28 29 30 31 32 33 34 35 36 37 38 39 40 41 42 43 44 45 46 47 48 49 50

000
ASUS45 KSLC 021910
RWRUT

UTAH REGIONAL WEATHER ROUNDUP
NATIONAL WEATHER SERVICE SALT LAKE CITY UT
1200 PM MST FRI DEC 02 2016

UTZ001>011-023>025-022000-

NORTHERN UTAH

CITY           SKY/WX    TMP DP  RH WIND       PRES   REMARKS
BRIGHAM CITY     N/A     36  16  45 CALM      30.25F
HILL AFB       SUNNY     29  17  59 E10       30.22F WCI  20
LOGAN          SUNNY     31  19  61 CALM      30.26F
OGDEN          SUNNY     32  19  58 SW6       30.23F WCI  26
SALT LAKE CITY MOSUNNY   34  20  56 W6        30.24S WCI  29
TOOELE VALLEY  SUNNY     30  27  86 S3        30.25F
WENDOVER       SUNNY     36  14  41 N9        30.29S WCI  29
HEBER CITY     SUNNY     27  16  63 CALM      30.19F
WEST JORDAN    SUNNY     32  25  76 NW9G16    30.23F WCI  24

$$

UTZ011>015-024>027-022000-

CENTRAL/NORTHEAST UTAH

CITY           SKY/WX    TMP DP  RH WIND       PRES   REMARKS
PROVO AIRPORT  SUNNY     31  21  66 CALM      30.23F
MOAB/CANYONLAN CLOUDY    40  19  43 N6        30.08F
DELTA          MOSUNNY   32  21  64 N9        30.21F WCI  24
PRICE          CLOUDY    34  12  40 NE12      30.10F WCI  25
ROOSEVELT      CLOUDY    34  18  51 CALM      30.20S
VERNAL         CLOUDY    32  16  51 VRB3      30.17F

$$

UTZ013>016-019>022-027-022000-

SOUTHERN UTAH

CITY           SKY/WX    TMP DP  RH WIND       PRES   REMARKS
BRYCE CANYON   NOT AVBL
CEDAR CITY     FLURRIES  28  19  69 N12       30.11F WCI  18
MILFORD        PTSUNNY   33  20  58 NE18      30.17F WCI  22
ST GEORGE      CLOUDY    46  18  31 SW6       30.12F
HANKSVILLE     MOSUNNY   39  16  38 NE5       30.13F
BLANDING       CLOUDY    38  18  45 NE7       30.07F WCI  32

$$

REGIONAL REPORTS     COLORADO/ARIZONA

CITY           SKY/WX    TMP DP  RH WIND       PRES   REMARKS
CRAIG, CO      CLOUDY    22  15  75 VRB3      30.14F
GRAND JUNCTION CLOUDY    36  22  56 S5        30.09F WCI  32
RIFLE, CO      CLOUDY    33  20  58 CALM      30.09F
MONTROSE, CO   CLOUDY    32  18  56 N6        30.09F WCI  26
CORTEZ, CO     CLOUDY    40  18  41 CALM      29.98F
COLORADO CITY  MOCLDY    43  19  39 N9G23     30.07F
PAGE, AZ       SUNNY     44  12  27 NE3       30.03F
GRAND CANYON   MOSUNNY   32  16  51 E15       30.00S WCI  22
KINGMAN, AZ    SUNNY     48  15  26 N24G30    30.01S
FLAGSTAFF, AZ  FLURRIES  29  20  69 E13       29.95S WCI  19

$$

REGIONAL REPORTS    NEVADA/IDAHO/WYOMING

CITY           SKY/WX    TMP DP  RH WIND       PRES   REMARKS
LAS VEGAS, NV  PTSUNNY   52  11  19 NW17G29   30.11F
ELY, NY        MOSUNNY   26  12  55 N16G22    30.21S WCI  14
ELKO, NV       SUNNY     29  15  56 CALM      30.30F
POCATELLO, ID  CLOUDY    25  21  85 W14       30.33S WCI  13
BURLEY, ID     CLOUDY    28  23  81 W6        30.33S WCI  22
FORT BRIDGER,  CLEAR     23  12  63 N3        30.19S
EVANSTON, WY   SUNNY     20  13  74 N6        30.15F WCI  12
ROCK SPRINGS,  PTSUNNY   20  14  77 VRB3      30.16F

$$



USA.gov is the U.S. government's official web portal to all federal, state and local government web resources and services.